Weather History for 16531 - November, 2013

Change the Weather History Date:

Friday, November 1, 2013

  Actual Average Record
Temperature  
Mean Temperature 61 °F -  
Max Temperature 71 °F 62 °F - ()
Min Temperature 51 °F 46 °F - ()
Degree Days  
Heating Degree Days 4    
Growing Degree Days 11 (Base 50)    
Moisture  
Dew Point 58 °F    
Average Humidity 90    
Maximum Humidity 100    
Minimum Humidity 64    
Precipitation  
Precipitation 0.00 in 0.07 in - ()
Sea Level Pressure  
Sea Level Pressure 30.12 in    
Wind  
Wind Speed 4 mph ()    
Max Wind Speed 12 mph    
Max Gust Speed -    
Visibility 6.2 miles    
Events      
T = Trace of Precipitation, MM = Missing Value Source: Averaged Metar Reports

Daily Weather History Graph

Daily Weather History Graph

Search for Another Location

Airport or City:

Trip Planner

Search our weather history database for the weather conditions in past years. The results will help you decide how hot, cold, wet, or windy it might be!

Date:

Astronomy

Nov. 01, 2013 Rise Set
Actual Time 6:52 AM CET 5:17 PM CET
Civil Twilight 6:24 AM CET 5:46 PM CET
Nautical Twilight 5:51 AM CET 6:18 PM CET
Astronomical Twilight 5:19 AM CET 6:50 PM CET
Moon 4:26 AM CET (11/1) 4:01 PM CET (11/1)
Length of Visible Light 11h 22m
Length of Day
10h 25m
Waning Crescent, 5% of the Moon is Illuminated
Nov 1
Waning Crescent
Nov 3
New
Nov 10
First Quarter
Nov 17
Full
Nov 25
Last Quarter

Hourly Weather History & Observations

Time (CET) Temp. Dew Point Humidity Pressure Visibility Wind Dir Wind Speed Gust Speed Precip Events Conditions
12:20 AM 57.2 °F 57.2 °F 100% 30.15 in 6.2 mi SSW 3.5 mph - N/A   Scattered Clouds
12:50 AM 57.2 °F 57.2 °F 100% 30.15 in 6.2 mi SSE 4.6 mph - N/A   Scattered Clouds
1:20 AM 57.2 °F 55.4 °F 94% 30.15 in 6.2 mi SSW 3.5 mph - N/A   Scattered Clouds
1:50 AM 57.2 °F 55.4 °F 94% 30.15 in 6.2 mi South 3.5 mph - N/A   Scattered Clouds
2:20 AM 57.2 °F 55.4 °F 94% 30.15 in 6.2 mi SW 3.5 mph - N/A   Scattered Clouds
2:50 AM 55.4 °F 55.4 °F 100% 30.12 in 6.2 mi SW 4.6 mph - N/A   Scattered Clouds
3:20 AM 55.4 °F 55.4 °F 100% 30.12 in 6.2 mi SSW 4.6 mph - N/A   Scattered Clouds
3:50 AM 53.6 °F 53.6 °F 100% 30.12 in 6.2 mi Variable 1.2 mph - N/A   Scattered Clouds
4:20 AM 55.4 °F 53.6 °F 94% 30.12 in 6.2 mi SSW 3.5 mph - N/A   Scattered Clouds
4:50 AM 53.6 °F 53.6 °F 100% 30.12 in 6.2 mi SW 4.6 mph - N/A   Scattered Clouds
5:20 AM 51.8 °F 51.8 °F 100% 30.12 in 6.2 mi SW 2.3 mph - N/A   Scattered Clouds
5:50 AM 53.6 °F 53.6 °F 100% 30.12 in 6.2 mi WSW 3.5 mph - N/A   Scattered Clouds
6:20 AM 53.6 °F 53.6 °F 100% 30.12 in 6.2 mi South 4.6 mph - N/A   Scattered Clouds
6:50 AM 53.6 °F 53.6 °F 100% 30.12 in 6.2 mi SSW 5.8 mph - N/A   Scattered Clouds
7:20 AM 55.4 °F 53.6 °F 94% 30.15 in 6.2 mi Variable 4.6 mph - N/A   Partly Cloudy
7:50 AM 55.4 °F 53.6 °F 94% 30.15 in 6.2 mi SSW 4.6 mph - N/A   Partly Cloudy
8:20 AM 57.2 °F 55.4 °F 94% 30.15 in - SW 3.5 mph - N/A   Clear
8:50 AM 60.8 °F 59.0 °F 94% 30.15 in - Variable 1.2 mph - N/A   Clear
9:20 AM 62.6 °F 60.8 °F 94% 30.15 in - Calm Calm - N/A   Clear
9:50 AM 64.4 °F 60.8 °F 88% 30.15 in - Variable 2.3 mph - N/A   Clear
10:20 AM 68.0 °F 60.8 °F 78% 30.15 in - Calm Calm - N/A   Clear
10:50 AM 68.0 °F 59.0 °F 73% 30.15 in - Variable 1.2 mph - N/A   Clear
11:20 AM 69.8 °F 60.8 °F 73% 30.15 in - Variable 3.5 mph - N/A   Clear
11:50 AM 69.8 °F 60.8 °F 73% 30.12 in 6.2 mi NE 5.8 mph - N/A   Partly Cloudy
12:20 PM 71.6 °F 60.8 °F 69% 30.12 in 6.2 mi NNE 6.9 mph - N/A   Partly Cloudy
12:50 PM 71.6 °F 59.0 °F 64% 30.12 in 6.2 mi NE 6.9 mph - N/A   Partly Cloudy
1:20 PM 71.6 °F 60.8 °F 69% 30.12 in 6.2 mi NE 9.2 mph - N/A   Partly Cloudy
1:50 PM 71.6 °F 62.6 °F 73% 30.09 in 6.2 mi ENE 10.4 mph - N/A   Partly Cloudy
2:20 PM 69.8 °F 62.6 °F 78% 30.09 in 6.2 mi NE 11.5 mph - N/A   Partly Cloudy
2:50 PM 69.8 °F 62.6 °F 78% 30.09 in 6.2 mi NE 9.2 mph - N/A   Partly Cloudy
3:20 PM 69.8 °F 62.6 °F 78% 30.09 in 6.2 mi NE 10.4 mph - N/A   Partly Cloudy
3:50 PM 69.8 °F 62.6 °F 78% 30.09 in 6.2 mi NE 9.2 mph - N/A   Partly Cloudy
4:20 PM 68.0 °F 62.6 °F 83% 30.09 in 6.2 mi NE 6.9 mph - N/A   Partly Cloudy
4:50 PM 68.0 °F 60.8 °F 78% 30.09 in 6.2 mi NE 4.6 mph - N/A   Partly Cloudy
5:20 PM 66.2 °F 60.8 °F 83% 30.09 in 6.2 mi Variable 2.3 mph - N/A   Partly Cloudy
5:50 PM 64.4 °F 60.8 °F 88% 30.09 in 6.2 mi NNE 1.2 mph - N/A   Partly Cloudy
6:20 PM 64.4 °F 59.0 °F 83% 30.09 in 6.2 mi ENE 3.5 mph - N/A   Partly Cloudy
6:50 PM 62.6 °F 60.8 °F 94% 30.09 in 6.2 mi NE 2.3 mph - N/A   Partly Cloudy
7:20 PM 60.8 °F 59.0 °F 94% 30.12 in 6.2 mi Variable 1.2 mph - N/A   Partly Cloudy
7:50 PM 60.8 °F 59.0 °F 94% 30.09 in 6.2 mi Variable 1.2 mph - N/A   Partly Cloudy
8:20 PM 59.0 °F 59.0 °F 100% 30.09 in 6.2 mi SSW 2.3 mph - N/A   Partly Cloudy
8:50 PM 59.0 °F 59.0 °F 100% 30.09 in 6.2 mi SSW 4.6 mph - N/A   Partly Cloudy
9:20 PM 59.0 °F 57.2 °F 94% 30.09 in - SW 4.6 mph - N/A   Clear
9:50 PM 59.0 °F 59.0 °F 100% 30.09 in - Variable 2.3 mph - N/A   Clear
10:20 PM 60.8 °F 59.0 °F 94% 30.12 in - Variable 2.3 mph - N/A   Clear
10:50 PM 60.8 °F 59.0 °F 94% 30.09 in 6.2 mi SW 3.5 mph - N/A   Partly Cloudy
11:20 PM 59.0 °F 59.0 °F 100% 30.09 in 6.2 mi SSW 3.5 mph - N/A   Scattered Clouds
11:50 PM 59.0 °F 59.0 °F 100% 30.09 in 6.2 mi SW 3.5 mph - N/A   Scattered Clouds